Time,TemperatureF,DewpointF,PressureIn,WindDirection,WindDirectionDegrees,WindSpeedMPH,WindSpeedGustMPH,Humidity,HourlyPrecipIn,Conditions,Clouds,dailyrainin,SoftwareType,DateUTC
2013-04-28 00:01:00,64.0,48.0,30.24,North,0,0.0,0.0,56,0.00,CLR,FEW,0.00,WeatherDisplay:10.37,2013-04-28 04:01:00,
2013-04-28 00:02:00,64.0,48.0,30.24,North,0,0.0,0.0,56,0.00,CLR,FEW,0.00,WeatherDisplay:10.37,2013-04-28 04:02:00,
2013-04-28 00:03:00,64.0,48.0,30.24,North,0,0.0,0.0,56,0.00,CLR,FEW,0.00,WeatherDisplay:10.37,2013-04-28 04:03:00,
2013-04-28 00:05:00,63.9,47.9,30.24,North,0,0.0,0.0,56,0.00,CLR,FEW,0.00,WeatherDisplay:10.37,2013-04-28 04:05:00,
2013-04-28 00:10:00,63.9,48.3,30.24,North,0,0.0,0.0,57,0.00,CLR,FEW,0.00,WeatherDisplay:10.37,2013-04-28 04:10:00,
2013-04-28 00:14:00,63.9,49.2,30.24,North,0,0.0,0.0,59,0.00,CLR,FEW,0.00,WeatherDisplay:10.37,2013-04-28 04:14:00,
2013-04-28 00:19:00,63.9,49.7,30.24,North,0,0.0,0.0,60,0.00,CLR,FEW,0.00,WeatherDisplay:10.37,2013-04-28 04:19:00,
2013-04-28 00:24:00,64.0,50.3,30.24,North,0,0.0,0.0,61,0.00,CLR,FEW,0.00,WeatherDisplay:10.37,2013-04-28 04:24:00,
2013-04-28 00:29:00,64.0,50.3,30.24,North,0,0.0,0.0,61,0.00,CLR,FEW,0.00,WeatherDisplay:10.37,2013-04-28 04:29:00,
2013-04-28 00:34:00,64.2,50.5,30.24,North,0,0.0,0.0,61,0.00,CLR,FEW,0.00,WeatherDisplay:10.37,2013-04-28 04:34:00,
2013-04-28 00:39:00,64.2,51.4,30.24,North,0,0.0,0.0,63,0.00,CLR,FEW,0.00,WeatherDisplay:10.37,2013-04-28 04:39:00,
2013-04-28 00:44:00,64.0,50.8,30.24,North,0,0.0,0.0,62,0.00,CLR,FEW,0.00,WeatherDisplay:10.37,2013-04-28 04:44:00,
2013-04-28 00:49:00,64.0,51.2,30.24,North,0,0.0,0.0,63,0.00,CLR,FEW,0.00,WeatherDisplay:10.37,2013-04-28 04:49:00,
2013-04-28 00:54:00,64.0,51.2,30.24,North,0,0.0,0.0,63,0.00,CLR,FEW,0.00,WeatherDisplay:10.37,2013-04-28 04:54:00,
2013-04-28 01:00:00,64.0,51.6,30.24,North,0,0.0,0.0,64,0.00,CLR,FEW,0.00,WeatherDisplay:10.37,2013-04-28 05:00:00,
2013-04-28 01:05:00,64.0,51.6,30.24,North,0,0.0,0.0,64,0.00,CLR,FEW,0.00,WeatherDisplay:10.37,2013-04-28 05:05:00,
2013-04-28 01:10:00,64.0,52.0,30.24,North,0,0.0,0.0,65,0.00,CLR,FEW,0.00,WeatherDisplay:10.37,2013-04-28 05:10:00,
2013-04-28 01:15:00,64.0,51.6,30.24,North,0,0.0,0.0,64,0.00,CLR,FEW,0.00,WeatherDisplay:10.37,2013-04-28 05:15:00,
2013-04-28 01:20:00,64.0,52.0,30.24,North,0,0.0,0.0,65,0.00,CLR,FEW,0.00,WeatherDisplay:10.37,2013-04-28 05:20:00,
2013-04-28 01:25:00,64.0,52.0,30.24,North,0,0.0,0.0,65,0.00,CLR,FEW,0.00,WeatherDisplay:10.37,2013-04-28 05:25:00,
2013-04-28 01:30:00,64.0,52.0,30.24,North,0,0.0,0.0,65,0.00,CLR,FEW,0.00,WeatherDisplay:10.37,2013-04-28 05:30:00,
2013-04-28 01:35:00,64.2,52.2,30.24,North,0,0.0,0.0,65,0.00,CLR,FEW,0.00,WeatherDisplay:10.37,2013-04-28 05:35:00,
2013-04-28 01:40:00,64.2,52.6,30.24,North,0,0.0,0.0,66,0.00,CLR,FEW,0.00,WeatherDisplay:10.37,2013-04-28 05:40:00,
2013-04-28 01:45:00,64.2,52.6,30.24,North,0,0.0,0.0,66,0.00,CLR,FEW,0.00,WeatherDisplay:10.37,2013-04-28 05:45:00,
2013-04-28 01:50:00,64.2,52.6,30.24,North,0,0.0,0.0,66,0.00,CLR,FEW,0.00,WeatherDisplay:10.37,2013-04-28 05:50:00,
2013-04-28 01:55:00,64.2,52.6,30.24,North,0,0.0,0.0,66,0.00,CLR,FEW,0.00,WeatherDisplay:10.37,2013-04-28 05:55:00,
2013-04-28 02:00:00,64.2,52.6,30.21,North,0,0.0,0.0,66,0.00,CLR,FEW,0.00,WeatherDisplay:10.37,2013-04-28 06:00:00,
2013-04-28 02:05:00,64.2,53.0,30.21,North,0,0.0,0.0,67,0.00,CLR,FEW,0.00,WeatherDisplay:10.37,2013-04-28 06:05:00,
2013-04-28 02:10:00,64.2,53.0,30.21,North,0,0.0,0.0,67,0.00,CLR,FEW,0.00,WeatherDisplay:10.37,2013-04-28 06:10:00,
2013-04-28 02:15:00,64.4,53.2,30.21,North,0,0.0,0.0,67,0.00,CLR,FEW,0.00,WeatherDisplay:10.37,2013-04-28 06:15:00,
2013-04-28 02:20:00,64.2,53.0,30.21,North,0,0.0,0.0,67,0.00,CLR,FEW,0.00,WeatherDisplay:10.37,2013-04-28 06:20:00,
2013-04-28 02:25:00,64.4,53.6,30.21,North,0,0.0,0.0,68,0.00,CLR,FEW,0.00,WeatherDisplay:10.37,2013-04-28 06:25:00,
2013-04-28 02:30:00,64.4,53.6,30.21,North,0,0.0,0.0,68,0.00,CLR,FEW,0.00,WeatherDisplay:10.37,2013-04-28 06:30:00,
2013-04-28 02:35:00,64.4,53.6,30.21,North,0,0.0,0.0,68,0.00,CLR,FEW,0.00,WeatherDisplay:10.37,2013-04-28 06:35:00,
2013-04-28 02:40:00,64.4,53.6,30.21,North,0,0.0,0.0,68,0.00,CLR,FEW,0.00,WeatherDisplay:10.37,2013-04-28 06:40:00,
2013-04-28 02:45:00,64.4,53.6,30.21,North,0,0.0,0.0,68,0.00,CLR,FEW,0.00,WeatherDisplay:10.37,2013-04-28 06:45:00,
2013-04-28 02:50:00,64.4,53.6,30.21,North,0,0.0,0.0,68,0.00,CLR,FEW,0.00,WeatherDisplay:10.37,2013-04-28 06:50:00,
2013-04-28 02:55:00,64.4,54.0,30.21,North,0,0.0,0.0,69,0.00,CLR,FEW,0.00,WeatherDisplay:10.37,2013-04-28 06:55:00,
2013-04-28 03:00:00,64.4,54.0,30.21,North,0,0.0,0.0,69,0.00,CLR,FEW,0.00,WeatherDisplay:10.37,2013-04-28 07:00:00,
2013-04-28 03:05:00,64.4,54.4,30.21,North,0,0.0,0.0,70,0.00,CLR,FEW,0.00,WeatherDisplay:10.37,2013-04-28 07:05:00,
2013-04-28 03:10:00,64.6,55.0,30.21,North,0,0.0,0.0,71,0.00,CLR,FEW,0.00,WeatherDisplay:10.37,2013-04-28 07:10:00,
2013-04-28 03:15:00,64.6,55.0,30.21,North,0,0.0,0.0,71,0.00,CLR,FEW,0.00,WeatherDisplay:10.37,2013-04-28 07:15:00,
2013-04-28 03:20:00,64.6,55.3,30.21,North,0,0.0,0.0,72,0.00,CLR,FEW,0.00,WeatherDisplay:10.37,2013-04-28 07:20:00,
2013-04-28 03:25:00,64.6,55.3,30.21,North,0,0.0,0.0,72,0.00,CLR,FEW,0.00,WeatherDisplay:10.37,2013-04-28 07:25:00,
2013-04-28 03:30:00,64.6,55.3,30.21,North,0,0.0,0.0,72,0.00,CLR,FEW,0.00,WeatherDisplay:10.37,2013-04-28 07:30:00,
2013-04-28 03:35:00,64.6,55.3,30.21,North,0,0.0,0.0,72,0.00,CLR,FEW,0.00,WeatherDisplay:10.37,2013-04-28 07:35:00,
2013-04-28 03:40:00,64.6,55.7,30.21,North,0,0.0,0.0,73,0.00,CLR,FEW,0.00,WeatherDisplay:10.37,2013-04-28 07:40:00,
2013-04-28 03:45:00,64.6,55.7,30.18,North,0,0.0,0.0,73,0.00,CLR,FEW,0.00,WeatherDisplay:10.37,2013-04-28 07:45:00,
2013-04-28 03:50:00,64.6,55.7,30.18,North,0,0.0,0.0,73,0.00,CLR,FEW,0.00,WeatherDisplay:10.37,2013-04-28 07:50:00,
2013-04-28 03:55:00,64.6,55.7,30.18,North,0,0.0,0.0,73,0.00,CLR,FEW,0.00,WeatherDisplay:10.37,2013-04-28 07:55:00,
2013-04-28 04:00:00,64.6,56.1,30.18,North,0,0.0,0.0,74,0.00,CLR,FEW,0.00,WeatherDisplay:10.37,2013-04-28 08:00:00,
2013-04-28 04:05:00,64.6,56.1,30.18,North,0,0.0,0.0,74,0.00,CLR,FEW,0.00,WeatherDisplay:10.37,2013-04-28 08:05:00,
2013-04-28 04:10:00,64.6,56.5,30.18,North,0,0.0,0.0,75,0.00,CLR,FEW,0.00,WeatherDisplay:10.37,2013-04-28 08:10:00,
2013-04-28 04:15:00,64.6,56.8,30.18,North,0,0.0,0.0,76,0.00,CLR,FEW,0.00,WeatherDisplay:10.37,2013-04-28 08:15:00,
2013-04-28 04:20:00,64.6,56.8,30.18,North,0,0.0,0.0,76,0.00,CLR,FEW,0.00,WeatherDisplay:10.37,2013-04-28 08:20:00,
2013-04-28 04:25:00,64.6,56.8,30.18,North,0,0.0,0.0,76,0.00,CLR,FEW,0.00,WeatherDisplay:10.37,2013-04-28 08:25:00,
2013-04-28 04:30:00,64.6,56.8,30.15,North,0,0.0,0.0,76,0.00,CLR,FEW,0.00,WeatherDisplay:10.37,2013-04-28 08:30:00,
2013-04-28 04:35:00,64.6,56.8,30.15,North,0,0.0,0.0,76,0.00,CLR,FEW,0.00,WeatherDisplay:10.37,2013-04-28 08:35:00,
2013-04-28 04:40:00,64.6,56.8,30.15,North,0,0.0,0.0,76,0.00,CLR,FEW,0.00,WeatherDisplay:10.37,2013-04-28 08:40:00,
2013-04-28 04:45:00,64.6,57.2,30.15,North,0,0.0,0.0,77,0.00,CLR,FEW,0.00,WeatherDisplay:10.37,2013-04-28 08:45:00,
2013-04-28 04:50:00,64.4,57.0,30.15,North,0,0.0,0.0,77,0.00,CLR,FEW,0.00,WeatherDisplay:10.37,2013-04-28 08:50:00,
2013-04-28 04:55:00,64.4,57.0,30.15,North,0,0.0,0.0,77,0.00,CLR,FEW,0.00,WeatherDisplay:10.37,2013-04-28 08:55:00,
2013-04-28 05:00:00,64.4,57.4,30.15,North,0,0.0,0.0,78,0.00,CLR,FEW,0.00,WeatherDisplay:10.37,2013-04-28 09:00:00,
2013-04-28 05:05:00,64.2,57.2,30.15,North,0,0.0,0.0,78,0.00,CLR,FEW,0.00,WeatherDisplay:10.37,2013-04-28 09:05:00,
2013-04-28 05:10:00,64.2,57.2,30.15,North,0,0.0,0.0,78,0.00,CLR,FEW,0.00,WeatherDisplay:10.37,2013-04-28 09:10:00,
2013-04-28 05:15:00,64.2,56.9,30.18,North,0,0.0,0.0,77,0.00,CLR,FEW,0.00,WeatherDisplay:10.37,2013-04-28 09:15:00,
2013-04-28 05:20:00,64.2,56.9,30.18,North,0,0.0,0.0,77,0.00,CLR,FEW,0.00,WeatherDisplay:10.37,2013-04-28 09:20:00,
2013-04-28 05:25:00,64.2,56.5,30.18,North,0,0.0,0.0,76,0.00,CLR,FEW,0.00,WeatherDisplay:10.37,2013-04-28 09:25:00,
2013-04-28 05:30:00,64.0,56.3,30.18,North,0,0.0,0.0,76,0.00,CLR,FEW,0.00,WeatherDisplay:10.37,2013-04-28 09:30:00,
2013-04-28 05:35:00,63.9,56.1,30.18,North,0,0.0,0.0,76,0.00,CLR,FEW,0.00,WeatherDisplay:10.37,2013-04-28 09:35:00,
2013-04-28 05:40:00,63.7,56.0,30.18,North,0,0.0,0.0,76,0.00,CLR,FEW,0.00,WeatherDisplay:10.37,2013-04-28 09:40:00,
2013-04-28 05:45:00,63.5,55.8,30.18,North,0,0.0,0.0,76,0.00,CLR,FEW,0.00,WeatherDisplay:10.37,2013-04-28 09:45:00,
2013-04-28 05:50:00,63.5,55.8,30.18,North,0,0.0,0.0,76,0.00,CLR,FEW,0.00,WeatherDisplay:10.37,2013-04-28 09:50:00,
2013-04-28 05:55:00,63.5,56.2,30.18,North,0,0.0,0.0,77,0.00,CLR,FEW,0.00,WeatherDisplay:10.37,2013-04-28 09:55:00,
2013-04-28 06:00:00,63.9,57.2,30.18,North,0,0.0,0.0,79,0.00,CLR,FEW,0.00,WeatherDisplay:10.37,2013-04-28 10:00:00,
2013-04-28 06:05:00,64.0,57.7,30.18,North,0,0.0,0.0,80,0.00,CLR,FEW,0.00,WeatherDisplay:10.37,2013-04-28 10:05:00,
2013-04-28 06:11:00,64.2,58.3,30.18,North,0,0.0,0.0,81,0.00,CLR,FEW,0.00,WeatherDisplay:10.37,2013-04-28 10:11:00,
2013-04-28 06:17:00,64.4,58.4,30.18,North,0,0.0,0.0,81,0.00,CLR,FEW,0.00,WeatherDisplay:10.37,2013-04-28 10:17:00,
2013-04-28 06:22:00,64.6,58.3,30.18,North,0,0.0,0.0,80,0.00,CLR,FEW,0.00,WeatherDisplay:10.37,2013-04-28 10:22:00,
2013-04-28 06:27:00,64.6,57.6,30.18,North,0,0.0,0.0,78,0.00,CLR,FEW,0.00,WeatherDisplay:10.37,2013-04-28 10:27:00,
2013-04-28 06:32:00,64.8,57.0,30.18,North,0,0.0,0.0,76,0.00,CLR,FEW,0.00,WeatherDisplay:10.37,2013-04-28 10:32:00,
2013-04-28 06:37:00,64.9,56.8,30.18,North,0,0.0,0.0,75,0.00,CLR,FEW,0.00,WeatherDisplay:10.37,2013-04-28 10:37:00,
2013-04-28 06:42:00,65.1,56.6,30.18,North,0,0.0,0.0,74,0.00,CLR,FEW,0.00,WeatherDisplay:10.37,2013-04-28 10:42:00,
2013-04-28 06:47:00,65.3,56.4,30.18,North,0,0.0,0.0,73,0.00,CLR,FEW,0.00,WeatherDisplay:10.37,2013-04-28 10:47:00,
2013-04-28 06:52:00,65.3,56.4,30.18,North,0,0.0,0.0,73,0.00,CLR,FEW,0.00,WeatherDisplay:10.37,2013-04-28 10:52:00,
2013-04-28 06:57:00,65.3,56.0,30.18,North,0,0.0,0.0,72,0.00,CLR,FEW,0.00,WeatherDisplay:10.37,2013-04-28 10:57:00,
2013-04-28 07:02:00,65.5,56.2,30.18,North,0,0.0,0.0,72,0.00,CLR,FEW,0.00,WeatherDisplay:10.37,2013-04-28 11:02:00,
2013-04-28 07:07:00,65.5,55.8,30.18,North,0,0.0,0.0,71,0.00,CLR,FEW,0.00,WeatherDisplay:10.37,2013-04-28 11:07:00,
2013-04-28 07:12:00,65.5,55.8,30.18,North,0,0.0,0.0,71,0.00,CLR,FEW,0.00,WeatherDisplay:10.37,2013-04-28 11:12:00,
2013-04-28 07:17:00,65.7,55.6,30.21,North,0,0.0,0.0,70,0.00,CLR,FEW,0.00,WeatherDisplay:10.37,2013-04-28 11:17:00,
2013-04-28 07:22:00,65.7,55.2,30.21,North,0,0.0,0.0,69,0.00,CLR,FEW,0.00,WeatherDisplay:10.37,2013-04-28 11:22:00,
2013-04-28 07:27:00,65.7,55.2,30.21,North,0,0.0,0.0,69,0.00,CLR,FEW,0.00,WeatherDisplay:10.37,2013-04-28 11:27:00,
2013-04-28 07:32:00,65.7,54.8,30.21,North,0,0.0,0.0,68,0.00,CLR,FEW,0.00,WeatherDisplay:10.37,2013-04-28 11:32:00,
2013-04-28 07:37:00,65.7,54.8,30.21,North,0,0.0,0.0,68,0.00,CLR,FEW,0.00,WeatherDisplay:10.37,2013-04-28 11:37:00,
2013-04-28 07:42:00,65.7,54.8,30.21,North,0,0.0,0.0,68,0.00,CLR,FEW,0.00,WeatherDisplay:10.37,2013-04-28 11:42:00,
2013-04-28 07:48:00,65.7,54.8,30.21,North,0,0.0,0.0,68,0.00,CLR,FEW,0.00,WeatherDisplay:10.37,2013-04-28 11:48:00,
2013-04-28 07:53:00,65.8,55.0,30.21,North,0,0.0,0.0,68,0.00,CLR,FEW,0.00,WeatherDisplay:10.37,2013-04-28 11:53:00,
2013-04-28 07:58:00,65.7,54.8,30.21,North,0,0.0,0.0,68,0.00,CLR,FEW,0.00,WeatherDisplay:10.37,2013-04-28 11:58:00,
2013-04-28 08:03:00,65.7,54.4,30.18,North,0,0.0,0.0,67,0.00,CLR,FEW,0.00,WeatherDisplay:10.37,2013-04-28 12:03:00,
2013-04-28 08:08:00,65.8,54.6,30.18,North,0,0.0,0.0,67,0.00,CLR,FEW,0.00,WeatherDisplay:10.37,2013-04-28 12:08:00,
2013-04-28 08:13:00,65.7,54.4,30.18,North,0,0.0,0.0,67,0.00,CLR,FEW,0.00,WeatherDisplay:10.37,2013-04-28 12:13:00,
2013-04-28 08:18:00,65.7,54.4,30.21,North,0,0.0,0.0,67,0.00,CLR,FEW,0.00,WeatherDisplay:10.37,2013-04-28 12:18:00,
2013-04-28 08:23:00,65.7,54.4,30.21,North,0,0.0,0.0,67,0.00,CLR,FEW,0.00,WeatherDisplay:10.37,2013-04-28 12:23:00,
2013-04-28 08:28:00,65.7,54.8,30.21,North,0,0.0,0.0,68,0.00,CLR,FEW,0.00,WeatherDisplay:10.37,2013-04-28 12:28:00,
2013-04-28 08:33:00,65.8,55.0,30.21,North,0,0.0,0.0,68,0.00,CLR,FEW,0.00,WeatherDisplay:10.37,2013-04-28 12:33:00,
2013-04-28 08:38:00,65.8,55.0,30.21,North,0,0.0,0.0,68,0.00,CLR,FEW,0.00,WeatherDisplay:10.37,2013-04-28 12:38:00,
2013-04-28 08:43:00,65.8,54.6,30.21,North,0,0.0,0.0,67,0.00,CLR,FEW,0.00,WeatherDisplay:10.37,2013-04-28 12:43:00,
2013-04-28 08:48:00,65.8,53.7,30.21,North,0,0.0,0.0,65,0.00,CLR,FEW,0.00,WeatherDisplay:10.37,2013-04-28 12:48:00,
2013-04-28 08:53:00,65.8,52.9,30.21,North,0,0.0,0.0,63,0.00,CLR,FEW,0.00,WeatherDisplay:10.37,2013-04-28 12:53:00,
2013-04-28 08:58:00,66.0,53.5,30.21,North,0,0.0,0.0,64,0.00,CLR,FEW,0.00,WeatherDisplay:10.37,2013-04-28 12:58:00,
2013-04-28 09:03:00,66.2,53.2,30.21,North,0,0.0,0.0,63,0.00,CLR,FEW,0.00,WeatherDisplay:10.37,2013-04-28 13:03:00,
2013-04-28 09:08:00,66.4,53.4,30.21,North,0,0.0,0.0,63,0.00,CLR,FEW,0.00,WeatherDisplay:10.37,2013-04-28 13:08:00,
2013-04-28 09:13:00,66.6,53.6,30.21,North,0,0.0,0.0,63,0.00,CLR,FEW,0.00,WeatherDisplay:10.37,2013-04-28 13:13:00,
2013-04-28 09:18:00,66.7,53.3,30.21,North,0,0.0,0.0,62,0.00,CLR,FEW,0.00,WeatherDisplay:10.37,2013-04-28 13:18:00,
2013-04-28 09:23:00,66.9,53.5,30.21,North,0,0.0,0.0,62,0.00,CLR,FEW,0.00,WeatherDisplay:10.37,2013-04-28 13:23:00,
2013-04-28 09:28:00,67.3,52.9,30.21,North,0,0.0,0.0,60,0.00,CLR,FEW,0.00,WeatherDisplay:10.37,2013-04-28 13:28:00,
2013-04-28 09:33:00,68.2,53.3,30.21,North,0,0.0,0.0,59,0.00,CLR,FEW,0.00,WeatherDisplay:10.37,2013-04-28 13:33:00,
2013-04-28 09:38:00,68.4,51.1,30.21,North,0,0.0,0.0,54,0.00,CLR,FEW,0.00,WeatherDisplay:10.37,2013-04-28 13:38:00,
2013-04-28 09:43:00,68.4,51.1,30.21,North,0,0.0,0.0,54,0.00,CLR,FEW,0.00,WeatherDisplay:10.37,2013-04-28 13:43:00,
2013-04-28 09:48:00,68.5,51.7,30.21,North,0,0.0,0.0,55,0.00,CLR,FEW,0.00,WeatherDisplay:10.37,2013-04-28 13:48:00,
2013-04-28 09:53:00,68.7,50.9,30.21,North,0,0.0,0.0,53,0.00,CLR,FEW,0.00,WeatherDisplay:10.37,2013-04-28 13:53:00,
2013-04-28 09:58:00,68.7,51.4,30.21,North,0,0.0,0.0,54,0.00,CLR,FEW,0.00,WeatherDisplay:10.37,2013-04-28 13:58:00,
2013-04-28 10:03:00,68.9,51.6,30.21,North,0,0.0,0.0,54,0.00,CLR,FEW,0.00,WeatherDisplay:10.37,2013-04-28 14:03:00,
2013-04-28 10:08:00,69.1,50.7,30.21,North,0,0.0,0.0,52,0.00,CLR,FEW,0.00,WeatherDisplay:10.37,2013-04-28 14:08:00,
2013-04-28 10:13:00,69.3,51.4,30.21,North,0,0.0,0.0,53,0.00,CLR,FEW,0.00,WeatherDisplay:10.37,2013-04-28 14:13:00,
2013-04-28 10:18:00,69.6,51.7,30.21,North,0,0.0,0.0,53,0.00,CLR,FEW,0.00,WeatherDisplay:10.37,2013-04-28 14:18:00,
2013-04-28 10:23:00,69.6,51.7,30.21,North,0,0.0,0.0,53,0.00,CLR,FEW,0.00,WeatherDisplay:10.37,2013-04-28 14:23:00,
2013-04-28 10:28:00,69.8,51.9,30.21,North,0,0.0,0.0,53,0.00,CLR,FEW,0.00,WeatherDisplay:10.37,2013-04-28 14:28:00,
2013-04-28 10:33:00,70.0,51.5,30.21,North,0,0.0,0.0,52,0.00,CLR,FEW,0.00,WeatherDisplay:10.37,2013-04-28 14:33:00,
2013-04-28 10:38:00,70.7,52.7,30.21,North,0,0.0,0.0,53,0.00,CLR,FEW,0.00,WeatherDisplay:10.37,2013-04-28 14:38:00,
2013-04-28 10:43:00,71.1,50.9,30.21,North,0,0.0,0.0,49,0.00,CLR,FEW,0.00,WeatherDisplay:10.37,2013-04-28 14:43:00,
2013-04-28 10:48:00,71.1,51.5,30.21,North,0,0.0,0.0,50,0.00,CLR,FEW,0.00,WeatherDisplay:10.37,2013-04-28 14:48:00,
2013-04-28 10:53:00,71.1,50.9,30.21,North,0,0.0,0.0,49,0.00,CLR,FEW,0.00,WeatherDisplay:10.37,2013-04-28 14:53:00,
2013-04-28 10:58:00,70.9,50.2,30.21,North,0,0.0,0.0,48,0.00,CLR,FEW,0.00,WeatherDisplay:10.37,2013-04-28 14:58:00,
2013-04-28 11:03:00,70.9,49.1,30.21,North,0,0.0,0.0,46,0.00,CLR,FEW,0.00,WeatherDisplay:10.37,2013-04-28 15:03:00,
2013-04-28 11:08:00,71.1,50.4,30.21,North,0,0.0,0.0,48,0.00,CLR,FEW,0.00,WeatherDisplay:10.37,2013-04-28 15:08:00,
2013-04-28 11:13:00,71.1,50.9,30.21,North,0,0.0,0.0,49,0.00,CLR,FEW,0.00,WeatherDisplay:10.37,2013-04-28 15:13:00,
2013-04-28 11:18:00,71.4,50.7,30.21,North,0,0.0,0.0,48,0.00,CLR,FEW,0.00,WeatherDisplay:10.37,2013-04-28 15:18:00,
2013-04-28 11:23:00,71.6,49.7,30.21,North,0,0.0,0.0,46,0.00,CLR,FEW,0.00,WeatherDisplay:10.37,2013-04-28 15:23:00,
2013-04-28 11:28:00,71.4,49.6,30.21,North,0,0.0,0.0,46,0.00,CLR,FEW,0.00,WeatherDisplay:10.37,2013-04-28 15:28:00,
2013-04-28 11:33:00,70.9,48.5,30.21,North,0,0.0,0.0,45,0.00,CLR,FEW,0.00,WeatherDisplay:10.37,2013-04-28 15:33:00,
2013-04-28 11:38:00,70.3,48.6,30.21,North,0,0.0,0.0,46,0.00,CLR,FEW,0.00,WeatherDisplay:10.37,2013-04-28 15:38:00,
2013-04-28 11:43:00,70.2,49.5,30.21,North,0,0.0,0.0,48,0.00,CLR,FEW,0.00,WeatherDisplay:10.37,2013-04-28 15:43:00,
2013-04-28 11:48:00,70.2,49.5,30.21,North,0,0.0,0.0,48,0.00,CLR,FEW,0.00,WeatherDisplay:10.37,2013-04-28 15:48:00,
2013-04-28 11:53:00,70.5,49.3,30.21,North,0,0.0,0.0,47,0.00,CLR,FEW,0.00,WeatherDisplay:10.37,2013-04-28 15:53:00,
2013-04-28 11:58:00,70.9,50.8,30.21,North,0,0.0,0.0,49,0.00,CLR,FEW,0.00,WeatherDisplay:10.37,2013-04-28 15:58:00,
2013-04-28 12:03:00,70.7,48.9,30.21,North,0,0.0,0.0,46,0.00,CLR,FEW,0.00,WeatherDisplay:10.37,2013-04-28 16:03:00,
2013-04-28 12:08:00,70.3,49.7,30.21,North,0,0.0,0.0,48,0.00,CLR,FEW,0.00,WeatherDisplay:10.37,2013-04-28 16:08:00,
2013-04-28 12:13:00,70.3,51.3,30.21,North,0,0.0,0.0,51,0.00,CLR,FEW,0.00,WeatherDisplay:10.37,2013-04-28 16:13:00,
2013-04-28 12:18:00,70.5,52.6,30.21,North,0,0.0,0.0,53,0.00,CLR,FEW,0.00,WeatherDisplay:10.37,2013-04-28 16:18:00,
2013-04-28 12:23:00,70.9,51.8,30.21,North,0,0.0,0.0,51,0.00,CLR,FEW,0.00,WeatherDisplay:10.37,2013-04-28 16:23:00,
2013-04-28 12:28:00,70.9,50.8,30.21,North,0,0.0,0.0,49,0.00,CLR,FEW,0.00,WeatherDisplay:10.37,2013-04-28 16:28:00,
2013-04-28 12:33:00,70.9,51.3,30.18,North,0,0.0,0.0,50,0.00,CLR,FEW,0.00,WeatherDisplay:10.37,2013-04-28 16:33:00,
2013-04-28 12:38:00,70.7,51.1,30.18,North,0,0.0,0.0,50,0.00,CLR,FEW,0.00,WeatherDisplay:10.37,2013-04-28 16:38:00,
2013-04-28 12:43:00,70.5,52.0,30.18,North,0,0.0,0.0,52,0.00,CLR,FEW,0.00,WeatherDisplay:10.37,2013-04-28 16:43:00,
2013-04-28 12:48:00,70.5,52.6,30.18,North,0,0.0,0.0,53,0.00,CLR,FEW,0.00,WeatherDisplay:10.37,2013-04-28 16:48:00,
2013-04-28 12:53:00,71.1,52.5,30.18,North,0,0.0,0.0,52,0.00,CLR,FEW,0.00,WeatherDisplay:10.37,2013-04-28 16:53:00,
2013-04-28 12:58:00,71.1,50.9,30.18,North,0,0.0,0.0,49,0.00,CLR,FEW,0.00,WeatherDisplay:10.37,2013-04-28 16:58:00,
2013-04-28 13:03:00,71.1,50.9,30.18,North,0,0.0,0.0,49,0.00,CLR,FEW,0.00,WeatherDisplay:10.37,2013-04-28 17:03:00,
2013-04-28 13:08:00,71.1,51.5,30.18,North,0,0.0,0.0,50,0.00,CLR,FEW,0.00,WeatherDisplay:10.37,2013-04-28 17:08:00,
2013-04-28 13:13:00,70.9,51.3,30.18,North,0,0.0,0.0,50,0.00,CLR,FEW,0.00,WeatherDisplay:10.37,2013-04-28 17:13:00,
2013-04-28 13:18:00,70.9,51.3,30.18,North,0,0.0,0.0,50,0.00,CLR,FEW,0.00,WeatherDisplay:10.37,2013-04-28 17:18:00,
2013-04-28 13:23:00,71.1,51.5,30.18,North,0,0.0,0.0,50,0.00,CLR,FEW,0.00,WeatherDisplay:10.37,2013-04-28 17:23:00,
2013-04-28 13:28:00,71.4,51.3,30.18,North,0,0.0,0.0,49,0.00,CLR,FEW,0.00,WeatherDisplay:10.37,2013-04-28 17:28:00,
2013-04-28 13:33:00,71.2,50.5,30.18,North,0,0.0,0.0,48,0.00,CLR,FEW,0.00,WeatherDisplay:10.37,2013-04-28 17:33:00,
2013-04-28 13:38:00,71.1,50.4,30.18,North,0,0.0,0.0,48,0.00,CLR,FEW,0.00,WeatherDisplay:10.37,2013-04-28 17:38:00,
2013-04-28 13:43:00,70.9,50.2,30.18,North,0,0.0,0.0,48,0.00,CLR,FEW,0.00,WeatherDisplay:10.37,2013-04-28 17:43:00,
2013-04-28 13:48:00,70.7,49.5,30.18,North,0,0.0,0.0,47,0.00,CLR,FEW,0.00,WeatherDisplay:10.37,2013-04-28 17:48:00,
2013-04-28 13:53:00,70.5,49.3,30.18,North,0,0.0,0.0,47,0.00,CLR,FEW,0.00,WeatherDisplay:10.37,2013-04-28 17:53:00,
2013-04-28 13:58:00,70.5,50.4,30.18,North,0,0.0,0.0,49,0.00,CLR,FEW,0.00,WeatherDisplay:10.37,2013-04-28 17:58:00,
2013-04-28 14:03:00,70.3,49.7,30.18,North,0,0.0,0.0,48,0.00,CLR,FEW,0.00,WeatherDisplay:10.37,2013-04-28 18:03:00,
2013-04-28 14:08:00,70.2,49.5,30.18,North,0,0.0,0.0,48,0.00,CLR,FEW,0.00,WeatherDisplay:10.37,2013-04-28 18:08:00,
2013-04-28 14:13:00,70.0,49.4,30.18,North,0,0.0,0.0,48,0.00,CLR,FEW,0.00,WeatherDisplay:10.37,2013-04-28 18:13:00,
2013-04-28 14:18:00,69.8,50.3,30.15,North,0,0.0,0.0,50,0.00,CLR,FEW,0.00,WeatherDisplay:10.37,2013-04-28 18:18:00,
2013-04-28 14:23:00,69.8,50.9,30.15,North,0,0.0,0.0,51,0.00,CLR,FEW,0.00,WeatherDisplay:10.37,2013-04-28 18:23:00,
2013-04-28 14:29:00,69.6,51.2,30.15,North,0,0.0,0.0,52,0.00,CLR,FEW,0.00,WeatherDisplay:10.37,2013-04-28 18:29:00,
2013-04-28 14:34:00,69.4,51.6,30.15,North,0,0.0,0.0,53,0.00,CLR,FEW,0.00,WeatherDisplay:10.37,2013-04-28 18:34:00,
2013-04-28 14:39:00,69.1,51.7,30.15,North,0,0.0,0.0,54,0.00,CLR,FEW,0.00,WeatherDisplay:10.37,2013-04-28 18:39:00,
2013-04-28 14:44:00,68.9,51.6,30.15,North,0,0.0,0.0,54,0.00,CLR,FEW,0.00,WeatherDisplay:10.37,2013-04-28 18:44:00,
2013-04-28 14:49:00,68.9,52.1,30.15,North,0,0.0,0.0,55,0.00,CLR,FEW,0.00,WeatherDisplay:10.37,2013-04-28 18:49:00,
2013-04-28 14:54:00,68.9,52.1,30.15,North,0,0.0,0.0,55,0.00,CLR,FEW,0.00,WeatherDisplay:10.37,2013-04-28 18:54:00,
2013-04-28 14:59:00,69.1,52.2,30.15,North,0,0.0,0.0,55,0.00,CLR,FEW,0.00,WeatherDisplay:10.37,2013-04-28 18:59:00,
2013-04-28 15:04:00,69.3,51.9,30.15,North,0,0.0,0.0,54,0.00,CLR,FEW,0.00,WeatherDisplay:10.37,2013-04-28 19:04:00,
2013-04-28 15:09:00,69.4,51.6,30.15,North,0,0.0,0.0,53,0.00,CLR,FEW,0.00,WeatherDisplay:10.37,2013-04-28 19:09:00,
2013-04-28 15:14:00,69.4,51.0,30.15,North,0,0.0,0.0,52,0.00,CLR,FEW,0.00,WeatherDisplay:10.37,2013-04-28 19:14:00,
2013-04-28 15:19:00,69.4,51.0,30.15,North,0,0.0,0.0,52,0.00,CLR,FEW,0.00,WeatherDisplay:10.37,2013-04-28 19:19:00,
2013-04-28 15:24:00,69.4,50.5,30.15,North,0,0.0,0.0,51,0.00,CLR,FEW,0.00,WeatherDisplay:10.37,2013-04-28 19:24:00,
2013-04-28 15:29:00,69.3,50.4,30.15,North,0,0.0,0.0,51,0.00,CLR,FEW,0.00,WeatherDisplay:10.37,2013-04-28 19:29:00,
2013-04-28 15:34:00,69.3,50.4,30.15,North,0,0.0,0.0,51,0.00,CLR,FEW,0.00,WeatherDisplay:10.37,2013-04-28 19:34:00,
2013-04-28 15:39:00,69.1,50.7,30.15,North,0,0.0,0.0,52,0.00,CLR,FEW,0.00,WeatherDisplay:10.37,2013-04-28 19:39:00,
2013-04-28 15:44:00,69.1,51.2,30.15,North,0,0.0,0.0,53,0.00,CLR,FEW,0.00,WeatherDisplay:10.37,2013-04-28 19:44:00,
2013-04-28 15:49:00,69.1,51.7,30.12,North,0,0.0,0.0,54,0.00,CLR,FEW,0.00,WeatherDisplay:10.37,2013-04-28 19:49:00,
2013-04-28 15:54:00,68.9,52.6,30.12,North,0,0.0,0.0,56,0.00,CLR,FEW,0.00,WeatherDisplay:10.37,2013-04-28 19:54:00,
2013-04-28 15:59:00,68.9,53.5,30.12,North,0,0.0,0.0,58,0.00,CLR,FEW,0.00,WeatherDisplay:10.37,2013-04-28 19:59:00,
2013-04-28 16:04:00,68.9,53.0,30.12,North,0,0.0,0.0,57,0.00,CLR,FEW,0.00,WeatherDisplay:10.37,2013-04-28 20:04:00,
2013-04-28 16:09:00,68.9,53.0,30.12,North,0,0.0,0.0,57,0.00,CLR,FEW,0.00,WeatherDisplay:10.37,2013-04-28 20:09:00,
2013-04-28 16:14:00,68.7,53.3,30.12,North,0,0.0,0.0,58,0.00,CLR,FEW,0.00,WeatherDisplay:10.37,2013-04-28 20:14:00,
2013-04-28 16:19:00,68.9,53.0,30.12,North,0,0.0,0.0,57,0.00,CLR,FEW,0.00,WeatherDisplay:10.37,2013-04-28 20:19:00,
2013-04-28 16:24:00,69.1,52.2,30.12,North,0,0.0,0.0,55,0.00,CLR,FEW,0.00,WeatherDisplay:10.37,2013-04-28 20:24:00,
2013-04-28 16:29:00,69.3,51.4,30.12,North,0,0.0,0.0,53,0.00,CLR,FEW,0.00,WeatherDisplay:10.37,2013-04-28 20:29:00,
2013-04-28 16:34:00,69.3,51.4,30.12,North,0,0.0,0.0,53,0.00,CLR,FEW,0.00,WeatherDisplay:10.37,2013-04-28 20:34:00,
2013-04-28 16:39:00,69.8,52.9,30.12,North,0,0.0,0.0,55,0.00,CLR,FEW,0.00,WeatherDisplay:10.37,2013-04-28 20:39:00,
2013-04-28 16:44:00,70.2,51.2,30.09,North,0,0.0,0.0,51,0.00,CLR,FEW,0.00,WeatherDisplay:10.37,2013-04-28 20:44:00,
2013-04-28 16:49:00,70.2,51.2,30.09,North,0,0.0,0.0,51,0.00,CLR,FEW,0.00,WeatherDisplay:10.37,2013-04-28 20:49:00,
2013-04-28 16:54:00,69.8,51.4,30.09,North,0,0.0,0.0,52,0.00,CLR,FEW,0.00,WeatherDisplay:10.37,2013-04-28 20:54:00,
2013-04-28 16:59:00,69.6,52.7,30.09,North,0,0.0,0.0,55,0.00,CLR,FEW,0.00,WeatherDisplay:10.37,2013-04-28 20:59:00,
2013-04-28 17:04:00,69.4,53.1,30.09,North,0,0.0,0.0,56,0.00,CLR,FEW,0.00,WeatherDisplay:10.37,2013-04-28 21:04:00,
2013-04-28 17:09:00,69.3,53.4,30.09,North,0,0.0,0.0,57,0.00,CLR,FEW,0.00,WeatherDisplay:10.37,2013-04-28 21:09:00,
2013-04-28 17:14:00,69.1,53.7,30.09,North,0,0.0,0.0,58,0.00,CLR,FEW,0.00,WeatherDisplay:10.37,2013-04-28 21:14:00,
2013-04-28 17:19:00,69.1,54.1,30.09,North,0,0.0,0.0,59,0.00,CLR,FEW,0.00,WeatherDisplay:10.37,2013-04-28 21:19:00,
2013-04-28 17:24:00,68.9,54.0,30.09,North,0,0.0,0.0,59,0.00,CLR,FEW,0.00,WeatherDisplay:10.37,2013-04-28 21:24:00,
2013-04-28 17:29:00,68.9,54.0,30.09,North,0,0.0,0.0,59,0.00,CLR,FEW,0.00,WeatherDisplay:10.37,2013-04-28 21:29:00,
2013-04-28 17:34:00,68.7,54.3,30.09,North,0,0.0,0.0,60,0.00,CLR,FEW,0.00,WeatherDisplay:10.37,2013-04-28 21:34:00,
2013-04-28 17:39:00,68.5,54.6,30.09,North,0,0.0,0.0,61,0.00,CLR,FEW,0.00,WeatherDisplay:10.37,2013-04-28 21:39:00,
2013-04-28 17:44:00,68.4,53.9,30.09,North,0,0.0,0.0,60,0.00,CLR,FEW,0.00,WeatherDisplay:10.37,2013-04-28 21:44:00,
2013-04-28 17:49:00,68.2,54.2,30.09,North,0,0.0,0.0,61,0.00,CLR,FEW,0.00,WeatherDisplay:10.37,2013-04-28 21:49:00,
2013-04-28 17:54:00,68.0,54.9,30.09,North,0,0.0,0.0,63,0.00,CLR,FEW,0.00,WeatherDisplay:10.37,2013-04-28 21:54:00,
2013-04-28 17:59:00,68.0,56.2,30.09,North,0,0.0,0.0,66,0.00,CLR,FEW,0.00,WeatherDisplay:10.37,2013-04-28 21:59:00,
2013-04-28 18:04:00,68.0,57.0,30.09,North,0,0.0,0.0,68,0.00,CLR,FEW,0.00,WeatherDisplay:10.37,2013-04-28 22:04:00,
2013-04-28 18:09:00,68.0,57.0,30.09,North,0,0.0,0.0,68,0.00,CLR,FEW,0.00,WeatherDisplay:10.37,2013-04-28 22:09:00,
2013-04-28 18:14:00,67.8,56.9,30.09,North,0,0.0,0.0,68,0.00,CLR,FEW,0.00,WeatherDisplay:10.37,2013-04-28 22:14:00,
2013-04-28 18:19:00,67.8,56.0,30.09,North,0,0.0,0.0,66,0.00,CLR,FEW,0.00,WeatherDisplay:10.37,2013-04-28 22:19:00,
2013-04-28 18:24:00,67.6,55.5,30.09,North,0,0.0,0.0,65,0.00,CLR,FEW,0.00,WeatherDisplay:10.37,2013-04-28 22:24:00,
2013-04-28 18:29:00,67.5,54.0,30.09,North,0,0.0,0.0,62,0.00,CLR,FEW,0.00,WeatherDisplay:10.37,2013-04-28 22:29:00,
2013-04-28 18:34:00,67.5,53.5,30.09,North,0,0.0,0.0,61,0.00,CLR,FEW,0.00,WeatherDisplay:10.37,2013-04-28 22:34:00,
2013-04-28 18:39:00,67.5,53.5,30.09,North,0,0.0,0.0,61,0.00,CLR,FEW,0.00,WeatherDisplay:10.37,2013-04-28 22:39:00,
2013-04-28 18:44:00,67.3,53.4,30.09,North,0,0.0,0.0,61,0.00,CLR,FEW,0.00,WeatherDisplay:10.37,2013-04-28 22:44:00,
2013-04-28 18:49:00,67.3,53.8,30.09,North,0,0.0,0.0,62,0.00,CLR,FEW,0.00,WeatherDisplay:10.37,2013-04-28 22:49:00,
2013-04-28 18:54:00,67.3,53.8,30.09,North,0,0.0,0.0,62,0.00,CLR,FEW,0.00,WeatherDisplay:10.37,2013-04-28 22:54:00,
2013-04-28 18:59:00,67.3,53.4,30.09,North,0,0.0,0.0,61,0.00,CLR,FEW,0.00,WeatherDisplay:10.37,2013-04-28 22:59:00,
2013-04-28 19:04:00,67.3,53.4,30.06,North,0,0.0,0.0,61,0.00,CLR,FEW,0.00,WeatherDisplay:10.37,2013-04-28 23:04:00,
2013-04-28 19:09:00,67.5,53.5,30.06,North,0,0.0,0.0,61,0.00,CLR,FEW,0.00,WeatherDisplay:10.37,2013-04-28 23:09:00,
2013-04-28 19:14:00,67.5,53.5,30.06,North,0,0.0,0.0,61,0.00,CLR,FEW,0.00,WeatherDisplay:10.37,2013-04-28 23:14:00,
2013-04-28 19:19:00,67.3,54.3,30.06,North,0,0.0,0.0,63,0.00,CLR,FEW,0.00,WeatherDisplay:10.37,2013-04-28 23:19:00,
2013-04-28 19:24:00,67.3,54.7,30.06,North,0,0.0,0.0,64,0.00,CLR,FEW,0.00,WeatherDisplay:10.37,2013-04-28 23:24:00,
2013-04-28 19:29:00,67.1,55.4,30.06,North,0,0.0,0.0,66,0.00,CLR,FEW,0.00,WeatherDisplay:10.37,2013-04-28 23:29:00,
2013-04-28 19:34:00,66.9,56.0,30.06,North,0,0.0,0.0,68,0.00,CLR,FEW,0.00,WeatherDisplay:10.37,2013-04-28 23:34:00,
2013-04-28 19:39:00,66.9,56.0,30.06,North,0,0.0,0.0,68,0.00,CLR,FEW,0.00,WeatherDisplay:10.37,2013-04-28 23:39:00,
2013-04-28 19:44:00,66.7,55.8,30.06,North,0,0.0,0.0,68,0.00,CLR,FEW,0.00,WeatherDisplay:10.37,2013-04-28 23:44:00,
2013-04-28 19:49:00,66.7,55.8,30.09,North,0,0.0,0.0,68,0.00,CLR,FEW,0.00,WeatherDisplay:10.37,2013-04-28 23:49:00,
2013-04-28 19:54:00,66.7,55.4,30.09,North,0,0.0,0.0,67,0.00,CLR,FEW,0.00,WeatherDisplay:10.37,2013-04-28 23:54:00,
2013-04-28 19:59:00,66.7,55.0,30.09,North,0,0.0,0.0,66,0.00,CLR,FEW,0.00,WeatherDisplay:10.37,2013-04-28 23:59:00,
2013-04-28 20:04:00,66.9,54.8,30.09,North,0,0.0,0.0,65,0.00,CLR,FEW,0.00,WeatherDisplay:10.37,2013-04-29 00:04:00,
2013-04-28 20:09:00,66.9,54.3,30.09,North,0,0.0,0.0,64,0.00,CLR,FEW,0.00,WeatherDisplay:10.37,2013-04-29 00:09:00,
2013-04-28 20:14:00,66.9,54.3,30.09,North,0,0.0,0.0,64,0.00,CLR,FEW,0.00,WeatherDisplay:10.37,2013-04-29 00:14:00,
2013-04-28 20:19:00,66.9,54.3,30.09,North,0,0.0,0.0,64,0.00,CLR,FEW,0.00,WeatherDisplay:10.37,2013-04-29 00:19:00,
2013-04-28 20:24:00,67.1,54.1,30.09,North,0,0.0,0.0,63,0.00,CLR,FEW,0.00,WeatherDisplay:10.37,2013-04-29 00:24:00,
2013-04-28 20:29:00,67.1,54.1,30.09,North,0,0.0,0.0,63,0.00,CLR,FEW,0.00,WeatherDisplay:10.37,2013-04-29 00:29:00,
2013-04-28 20:34:00,67.1,53.6,30.06,North,0,0.0,0.0,62,0.00,CLR,FEW,0.00,WeatherDisplay:10.37,2013-04-29 00:34:00,
2013-04-28 20:39:00,67.1,53.6,30.06,North,0,0.0,0.0,62,0.00,CLR,FEW,0.00,WeatherDisplay:10.37,2013-04-29 00:39:00,
2013-04-28 20:44:00,67.1,53.6,30.06,North,0,0.0,0.0,62,0.00,CLR,FEW,0.00,WeatherDisplay:10.37,2013-04-29 00:44:00,
2013-04-28 20:49:00,67.3,53.4,30.06,North,0,0.0,0.0,61,0.00,CLR,FEW,0.00,WeatherDisplay:10.37,2013-04-29 00:49:00,
2013-04-28 20:54:00,67.3,52.9,30.06,North,0,0.0,0.0,60,0.00,CLR,FEW,0.00,WeatherDisplay:10.37,2013-04-29 00:54:00,
2013-04-28 20:59:00,67.3,52.5,30.06,North,0,0.0,0.0,59,0.00,CLR,FEW,0.00,WeatherDisplay:10.37,2013-04-29 00:59:00,
2013-04-28 21:04:00,67.5,52.2,30.06,North,0,0.0,0.0,58,0.00,CLR,FEW,0.00,WeatherDisplay:10.37,2013-04-29 01:04:00,
2013-04-28 21:09:00,67.5,51.7,30.06,North,0,0.0,0.0,57,0.00,CLR,FEW,0.00,WeatherDisplay:10.37,2013-04-29 01:09:00,
2013-04-28 21:14:00,67.5,51.2,30.06,North,0,0.0,0.0,56,0.00,CLR,FEW,0.00,WeatherDisplay:10.37,2013-04-29 01:14:00,
2013-04-28 21:19:00,67.6,51.4,30.06,North,0,0.0,0.0,56,0.00,CLR,FEW,0.00,WeatherDisplay:10.37,2013-04-29 01:19:00,
2013-04-28 21:24:00,67.6,51.9,30.06,North,0,0.0,0.0,57,0.00,CLR,FEW,0.00,WeatherDisplay:10.37,2013-04-29 01:24:00,
2013-04-28 21:29:00,67.5,51.7,30.06,North,0,0.0,0.0,57,0.00,CLR,FEW,0.00,WeatherDisplay:10.37,2013-04-29 01:29:00,
2013-04-28 21:34:00,67.5,52.2,30.06,North,0,0.0,0.0,58,0.00,CLR,FEW,0.00,WeatherDisplay:10.37,2013-04-29 01:34:00,
2013-04-28 21:39:00,67.5,51.2,30.06,North,0,0.0,0.0,56,0.00,CLR,FEW,0.00,WeatherDisplay:10.37,2013-04-29 01:39:00,
2013-04-28 21:44:00,67.5,51.2,30.06,North,0,0.0,0.0,56,0.00,CLR,FEW,0.00,WeatherDisplay:10.37,2013-04-29 01:44:00,
2013-04-28 21:49:00,67.5,51.7,30.06,North,0,0.0,0.0,57,0.00,CLR,FEW,0.00,WeatherDisplay:10.37,2013-04-29 01:49:00,
2013-04-28 21:54:00,67.5,51.7,30.06,North,0,0.0,0.0,57,0.00,CLR,FEW,0.00,WeatherDisplay:10.37,2013-04-29 01:54:00,
2013-04-28 21:59:00,67.6,51.9,30.06,North,0,0.0,0.0,57,0.00,CLR,FEW,0.00,WeatherDisplay:10.37,2013-04-29 01:59:00,
2013-04-28 22:04:00,67.6,50.9,30.06,North,0,0.0,0.0,55,0.00,CLR,FEW,0.00,WeatherDisplay:10.37,2013-04-29 02:04:00,
2013-04-28 22:09:00,67.6,50.9,30.06,North,0,0.0,0.0,55,0.00,CLR,FEW,0.00,WeatherDisplay:10.37,2013-04-29 02:09:00,
2013-04-28 22:14:00,67.8,50.6,30.06,North,0,0.0,0.0,54,0.00,CLR,FEW,0.00,WeatherDisplay:10.37,2013-04-29 02:14:00,
2013-04-28 22:19:00,68.0,50.2,30.06,North,0,0.0,0.0,53,0.00,CLR,FEW,0.00,WeatherDisplay:10.37,2013-04-29 02:19:00,
2013-04-28 22:24:00,68.0,50.2,30.06,North,0,0.0,0.0,53,0.00,CLR,FEW,0.00,WeatherDisplay:10.37,2013-04-29 02:24:00,
2013-04-28 22:29:00,68.0,50.2,30.06,North,0,0.0,0.0,53,0.00,CLR,FEW,0.00,WeatherDisplay:10.37,2013-04-29 02:29:00,
2013-04-28 22:34:00,68.0,50.2,30.06,North,0,0.0,0.0,53,0.00,CLR,FEW,0.00,WeatherDisplay:10.37,2013-04-29 02:34:00,
2013-04-28 22:39:00,68.0,50.2,30.06,North,0,0.0,0.0,53,0.00,CLR,FEW,0.00,WeatherDisplay:10.37,2013-04-29 02:39:00,
2013-04-28 22:44:00,68.0,50.2,30.06,North,0,0.0,0.0,53,0.00,CLR,FEW,0.00,WeatherDisplay:10.37,2013-04-29 02:44:00,
2013-04-28 22:49:00,68.0,50.2,30.06,North,0,0.0,0.0,53,0.00,CLR,FEW,0.00,WeatherDisplay:10.37,2013-04-29 02:49:00,
2013-04-28 22:54:00,68.0,50.7,30.06,North,0,0.0,0.0,54,0.00,CLR,FEW,0.00,WeatherDisplay:10.37,2013-04-29 02:54:00,
2013-04-28 22:59:00,68.0,50.7,30.06,North,0,0.0,0.0,54,0.00,CLR,FEW,0.00,WeatherDisplay:10.37,2013-04-29 02:59:00,
2013-04-28 23:04:00,68.0,50.7,30.06,North,0,0.0,0.0,54,0.00,CLR,FEW,0.00,WeatherDisplay:10.37,2013-04-29 03:04:00,
2013-04-28 23:09:00,68.0,50.7,30.06,North,0,0.0,0.0,54,0.00,CLR,FEW,0.00,WeatherDisplay:10.37,2013-04-29 03:09:00,
2013-04-28 23:14:00,68.0,50.7,30.06,North,0,0.0,0.0,54,0.00,CLR,FEW,0.00,WeatherDisplay:10.37,2013-04-29 03:14:00,
2013-04-28 23:19:00,68.0,51.2,30.06,North,0,0.0,0.0,55,0.00,CLR,FEW,0.00,WeatherDisplay:10.37,2013-04-29 03:19:00,
2013-04-28 23:24:00,67.8,50.6,30.06,North,0,0.0,0.0,54,0.00,CLR,FEW,0.00,WeatherDisplay:10.37,2013-04-29 03:24:00,
2013-04-28 23:29:00,68.0,50.2,30.06,North,0,0.0,0.0,53,0.00,CLR,FEW,0.00,WeatherDisplay:10.37,2013-04-29 03:29:00,
2013-04-28 23:34:00,68.0,50.2,30.06,North,0,0.0,0.0,53,0.00,CLR,FEW,0.00,WeatherDisplay:10.37,2013-04-29 03:34:00,
2013-04-28 23:39:00,68.0,50.2,30.06,North,0,0.0,0.0,53,0.00,CLR,FEW,0.00,WeatherDisplay:10.37,2013-04-29 03:39:00,
2013-04-28 23:44:00,68.0,50.7,30.06,North,0,0.0,0.0,54,0.00,CLR,FEW,0.00,WeatherDisplay:10.37,2013-04-29 03:44:00,
2013-04-28 23:49:00,67.8,51.1,30.06,North,0,0.0,0.0,55,0.00,CLR,FEW,0.00,WeatherDisplay:10.37,2013-04-29 03:49:00,
2013-04-28 23:54:00,67.8,51.5,30.06,North,0,0.0,0.0,56,0.00,CLR,FEW,0.00,WeatherDisplay:10.37,2013-04-29 03:54:00,
2013-04-28 23:59:00,67.6,52.3,30.06,North,0,0.0,0.0,58,0.00,CLR,FEW,0.00,WeatherDisplay:10.37,2013-04-29 03:59:00,